Regional Weather Roundup
Issued by NWS

Home | Current Version | Previous Version | Graphics & Text | Print | Product List | Glossary On
Versions: 1 2 3 4 5 6 7 8 9 10 11 12 13 14 15 16 17 18 19 20 21 22 23 24 25 26 27 28 29 30 31 32 33 34 35 36 37 38 39 40 41 42 43 44 45 46 47 48 49 50
125
ASUS45 KSLC 161310
RWRUT

UTAH REGIONAL WEATHER ROUNDUP
NATIONAL WEATHER SERVICE SALT LAKE CITY UT
600 AM MST MON JAN 16 2017

UTZ001>011-023>025-161400-

NORTHERN UTAH

CITY           SKY/WX    TMP DP  RH WIND       PRES   REMARKS
BRIGHAM CITY     N/A     12   8  86 CALM      30.25S
HILL AFB       CLOUDY    13   7  74 E14       30.21S WCI  -2
LOGAN          MOCLDY     0  -1  96 CALM      30.29R FOG
OGDEN          CLOUDY    16  10  77 SW5       30.22F WCI   9
SALT LAKE CITY CLOUDY    25  22  88 N8        30.23S WCI  16
TOOELE VALLEY  CLOUDY    27  25  93 N3        30.24R
WENDOVER       CLOUDY    21  18  86 CALM      30.25S
HEBER CITY     LGT SNOW   9   7  92 CALM      30.19S
WEST JORDAN    CLOUDY    24  24 100 NW7       30.22R WCI  16

$$

UTZ011>015-024>027-161400-

CENTRAL/NORTHEAST UTAH

CITY           SKY/WX    TMP DP  RH WIND       PRES   REMARKS
PROVO AIRPORT  CLOUDY    25  20  81 N3        30.22R
MOAB/CANYONLAN CLOUDY    32  32 100 CALM      29.99R
DELTA          PTCLDY    23  21  93 CALM      30.20S
PRICE          PTCLDY    22  12  65 NW3       30.00S
RICHFIELD      CLOUDY    28  21  74 NE3       30.18R
ROOSEVELT      CLOUDY    28  23  80 CALM      30.15R
VERNAL         CLOUDY    16  13  88 CALM      30.11S

$$

UTZ013>016-019>022-027-161400-

SOUTHERN UTAH

CITY           SKY/WX    TMP DP  RH WIND       PRES   REMARKS
BRYCE CANYON   CLOUDY    18  13  80 N14       30.04S WCI   4
CEDAR CITY     CLOUDY    25  19  78 N10       30.11R WCI  15
MILFORD        CLOUDY    27  22  81 NE12      30.17R WCI  17
ST GEORGE      MOSUNNY   34  25  69 CALM      30.11R
HANKSVILLE     CLOUDY    34  28  80 MISG      30.03S
KANAB          CLEAR     27  25  93 MISG      30.08R
BLANDING       MOCLDY    32  32 100 E3        30.00S

$$

REGIONAL REPORTS     COLORADO/ARIZONA

CITY           SKY/WX    TMP DP  RH WIND       PRES   REMARKS
CRAIG, CO      CLOUDY    13  10  88 NW5       30.11R WCI   5
GRAND JUNCTION CLEAR     33  18  53 E9        29.99S WCI  25
RIFLE, CO      CLOUDY    29  20  69 VRB3      30.02S
MONTROSE, CO   CLOUDY    31  29  92 SE5       30.01R WCI  26
CORTEZ, CO     CLOUDY    33  31  92 NW6       29.91R WCI  28
COLORADO CITY  PTSUNNY   32  28  86 CALM      30.06R
PAGE, AZ       CLOUDY    39  21  48 NW8       29.99R WCI  33
GRAND CANYON   CLEAR     27  26  96 CALM      29.99S
KINGMAN, AZ    MOCLDY    35  28  75 E7        30.03S WCI  29
FLAGSTAFF, AZ  CLOUDY    30  29  96 S3        29.98R

$$

REGIONAL REPORTS    NEVADA/IDAHO/WYOMING

CITY           SKY/WX    TMP DP  RH WIND       PRES   REMARKS
LAS VEGAS, NV  MOCLDY    43  28  55 CALM      30.07R
ELY, NY        CLOUDY    18  17  96 N13       30.16S WCI   5
ELKO, NV       CLOUDY    22  16  78 W8        30.27R WCI  12
POCATELLO, ID  LGT SNOW   5   2  87 NE3       30.33S FOG
BURLEY, ID     CLOUDY    10   7  87 CALM      30.32R FOG
FORT BRIDGER,    N/A      2   1  96 S3        30.14S
EVANSTON, WY   HAZE       2  -4  76 NE3       30.11S VSB 1/4
ROCK SPRINGS,  FOG       -9 -12  87 SW6       30.13S VSB 1/4 WCI -22
KEMMERER, WY     N/A    N/A N/A N/A NW8       30.10S

$$




USA.gov is the U.S. government's official web portal to all federal, state and local government web resources and services.